Weather History for KEAR - January, 2014

Change the Weather History Date:

Wednesday, January 22, 2014

  Actual Average Record
Temperature  
Mean Temperature 20 °F 25 °F  
Max Temperature 36 °F 36 °F 70 °F (1950)
Min Temperature 3 °F 13 °F -16 °F (1966)
Degree Days  
Heating Degree Days 45 40  
Month to date heating degree days 893  
Since 1 July heating degree days 3536  
Cooling Degree Days 0 0  
Month to date cooling degree days 0  
Year to date cooling degree days 0  
Moisture  
Dew Point 9 °F    
Average Humidity 55    
Maximum Humidity 69    
Minimum Humidity 40    
Precipitation  
Precipitation 0.00 in - 0.25 in (1941)
Sea Level Pressure  
Sea Level Pressure 30.24 in    
Wind  
Wind Speed 16 mph (NNW)    
Max Wind Speed 28 mph    
Max Gust Speed 35 mph    
Visibility 10 miles    
Events      
T = Trace of Precipitation, MM = Missing Value Source: NWS Daily Summary

Daily Weather History Graph

Daily Weather History Graph

Search for Another Location

Airport or City:

Trip Planner

Search our weather history database for the weather conditions in past years. The results will help you decide how hot, cold, wet, or windy it might be!

Date:

Astronomy

Jan. 22, 2014 Rise Set
Actual Time 7:54 AM CST 5:41 PM CST
Civil Twilight 7:24 AM CST 6:11 PM CST
Nautical Twilight 6:51 AM CST 6:44 PM CST
Astronomical Twilight 6:18 AM CST 7:17 PM CST
Moon No Moon Rise 10:53 AM CST (1/22)
Length of Visible Light 10h 46m
Length of Day
9h 47m
Waning Gibbous, 65% of the Moon is Illuminated
Jan 22
Waning Gibbous
Jan 23
Last Quarter
Jan 30
New
Feb 6
First Quarter
Feb 14
Full

Hourly Weather History & Observations

Time (CST) Temp. Windchill Dew Point Humidity Pressure Visibility Wind Dir Wind Speed Gust Speed Precip Events Conditions
12:15 AM 30.2 °F 23.4 °F 19.4 °F 64% 30.09 in 10.0 mi WNW 6.9 mph - N/A   Clear
12:35 AM 26.6 °F 20.0 °F 19.4 °F 74% 30.09 in 10.0 mi NW 5.8 mph - N/A   Clear
12:55 AM 28.4 °F 20.4 °F 19.4 °F 69% 30.09 in 10.0 mi NW 8.1 mph - N/A   Clear
1:15 AM 28.4 °F 19.1 °F 19.4 °F 69% 30.09 in 10.0 mi WNW 10.4 mph - N/A   Clear
1:35 AM 30.2 °F 21.3 °F 19.4 °F 64% 30.08 in 10.0 mi WNW 10.4 mph - N/A   Mostly Cloudy
1:55 AM 30.2 °F 20.2 °F 19.4 °F 64% 30.08 in 10.0 mi NW 12.7 mph - N/A   Overcast
2:15 AM 30.2 °F 22.6 °F 19.4 °F 64% 30.09 in 10.0 mi NW 8.1 mph - N/A   Mostly Cloudy
2:35 AM 30.2 °F 19.8 °F 19.4 °F 64% 30.09 in 10.0 mi NW 13.8 mph - N/A   Partly Cloudy
2:55 AM 30.2 °F 21.3 °F 19.4 °F 64% 30.10 in 10.0 mi NW 10.4 mph - N/A   Clear
3:15 AM 30.2 °F 21.9 °F 21.2 °F 69% 30.11 in 10.0 mi NW 9.2 mph - N/A   Partly Cloudy
3:35 AM 30.2 °F 19.3 °F 19.4 °F 64% 30.10 in 10.0 mi NNW 15.0 mph - N/A   Mostly Cloudy
3:55 AM 30.2 °F 21.3 °F 19.4 °F 64% 30.10 in 10.0 mi NW 10.4 mph - N/A   Overcast
4:15 AM 30.2 °F 19.8 °F 19.4 °F 64% 30.11 in 10.0 mi NNW 13.8 mph - N/A   Overcast
4:35 AM 30.2 °F 19.3 °F 19.4 °F 64% 30.11 in 10.0 mi NNW 15.0 mph - N/A   Overcast
4:55 AM 30.2 °F 20.8 °F 19.4 °F 64% 30.11 in 10.0 mi NNW 11.5 mph - N/A   Overcast
5:15 AM 30.2 °F 21.3 °F 19.4 °F 64% 30.11 in 10.0 mi NNW 10.4 mph - N/A   Overcast
5:35 AM 30.2 °F 22.6 °F 19.4 °F 64% 30.12 in 10.0 mi NNW 8.1 mph - N/A   Overcast
5:55 AM 28.4 °F 21.2 °F 19.4 °F 69% 30.13 in 10.0 mi North 6.9 mph - N/A   Overcast
6:15 AM 26.6 °F 16.2 °F 19.4 °F 74% 30.14 in 10.0 mi NNW 11.5 mph - N/A   Overcast
6:35 AM 24.8 °F 14.0 °F 15.8 °F 69% 30.15 in 10.0 mi North 11.5 mph - N/A   Mostly Cloudy
6:55 AM 24.8 °F 12.4 °F 15.8 °F 69% 30.15 in 10.0 mi North 15.0 mph - N/A   Partly Cloudy
7:15 AM 24.8 °F 16.1 °F 14.0 °F 64% 30.15 in 10.0 mi NNW 8.1 mph - N/A   Mostly Cloudy
7:35 AM 24.8 °F 16.1 °F 14.0 °F 64% 30.16 in 10.0 mi NNW 8.1 mph - N/A   Overcast
7:55 AM 24.8 °F 15.3 °F 14.0 °F 64% 30.16 in 10.0 mi NW 9.2 mph - N/A   Overcast
8:15 AM 26.6 °F 17.5 °F 12.2 °F 55% 30.17 in 10.0 mi NW 9.2 mph - N/A   Overcast
8:35 AM 26.6 °F 18.2 °F 12.2 °F 55% 30.17 in 10.0 mi NW 8.1 mph - N/A   Overcast
8:55 AM 26.6 °F 19.1 °F 12.2 °F 55% 30.17 in 10.0 mi WNW 6.9 mph - N/A   Overcast
9:15 AM 26.6 °F 19.1 °F 10.4 °F 51% 30.17 in 10.0 mi WNW 6.9 mph - N/A   Mostly Cloudy
9:35 AM 28.4 °F 19.7 °F 12.2 °F 51% 30.17 in 10.0 mi WNW 9.2 mph - N/A   Mostly Cloudy
9:55 AM 28.4 °F 19.1 °F 10.4 °F 47% 30.17 in 10.0 mi WNW 10.4 mph - N/A   Mostly Cloudy
10:15 AM 30.2 °F 21.3 °F 14.0 °F 51% 30.17 in 10.0 mi WNW 10.4 mph - N/A   Overcast
10:35 AM 30.2 °F 19.8 °F 15.8 °F 55% 30.18 in 10.0 mi West 13.8 mph 17.3 mph N/A   Overcast
10:55 AM 32.0 °F 22.5 °F 17.6 °F 55% 30.17 in 10.0 mi WNW 12.7 mph - N/A   Overcast
11:15 AM 33.8 °F 24.8 °F 17.6 °F 52% 30.17 in 10.0 mi WNW 12.7 mph 20.7 mph N/A   Overcast
11:35 AM 33.8 °F 23.2 °F 17.6 °F 52% 30.17 in 10.0 mi NW 17.3 mph 24.2 mph N/A   Mostly Cloudy
11:55 AM 35.6 °F 23.2 °F 15.8 °F 44% 30.18 in 10.0 mi NNW 26.5 mph 34.5 mph N/A   Mostly Cloudy
12:15 PM 35.6 °F 24.0 °F 15.8 °F 44% 30.17 in 10.0 mi NNW 23.0 mph 28.8 mph N/A   Overcast
12:35 PM 33.8 °F 20.8 °F 15.8 °F 48% 30.17 in 10.0 mi NNW 26.5 mph 32.2 mph N/A   Overcast
12:55 PM 35.6 °F 24.2 °F 14.0 °F 41% 30.17 in 10.0 mi NNW 21.9 mph 32.2 mph N/A   Overcast
1:15 PM 35.6 °F 24.2 °F 14.0 °F 41% 30.16 in 10.0 mi NW 21.9 mph 29.9 mph N/A   Overcast
1:35 PM 33.8 °F 20.8 °F 12.2 °F 41% 30.17 in 10.0 mi NNW 26.5 mph 32.2 mph N/A   Overcast
1:55 PM 33.8 °F 21.9 °F 12.2 °F 41% 30.17 in 10.0 mi NNW 21.9 mph 29.9 mph N/A   Overcast
2:15 PM 33.8 °F 21.6 °F 12.2 °F 41% 30.18 in 10.0 mi North 23.0 mph - N/A   Overcast
2:35 PM 32.0 °F 18.6 °F 12.2 °F 44% 30.19 in 10.0 mi North 25.3 mph 31.1 mph N/A   Overcast
2:55 PM 30.2 °F 15.7 °F 15.8 °F 55% 30.21 in 10.0 mi North 27.6 mph 31.1 mph N/A   Overcast
3:15 PM 28.4 °F 13.8 °F 14.0 °F 55% 30.23 in 10.0 mi NNE 25.3 mph 31.1 mph N/A   Overcast
3:35 PM 24.8 °F 9.6 °F 12.2 °F 59% 30.23 in 10.0 mi North 23.0 mph 31.1 mph N/A   Overcast
3:55 PM 24.8 °F 10.3 °F 10.4 °F 54% 30.24 in 10.0 mi North 20.7 mph 27.6 mph N/A   Mostly Cloudy
4:15 PM 24.8 °F 9.6 °F 8.6 °F 50% 30.26 in 10.0 mi North 23.0 mph - N/A   Overcast
4:35 PM 23.0 °F 6.9 °F 6.8 °F 50% 30.28 in 10.0 mi North 24.2 mph 29.9 mph N/A   Mostly Cloudy
4:55 PM 19.4 °F 2.1 °F 6.8 °F 58% 30.29 in 10.0 mi North 24.2 mph 27.6 mph N/A   Mostly Cloudy
5:15 PM 19.4 °F 1.8 °F 5.0 °F 54% 30.31 in 10.0 mi North 25.3 mph 29.9 mph N/A   Partly Cloudy
5:35 PM 17.6 °F -0.6 °F 1.4 °F 49% 30.33 in 10.0 mi North 25.3 mph 32.2 mph N/A   Clear
5:55 PM 15.8 °F -1.9 °F 1.4 °F 53% 30.34 in 10.0 mi North 21.9 mph 27.6 mph N/A   Clear
6:15 PM 15.8 °F -1.1 °F -0.4 °F 49% 30.35 in 10.0 mi North 19.6 mph 27.6 mph N/A   Clear
6:35 PM 12.2 °F -6.3 °F 1.4 °F 62% 30.37 in 10.0 mi North 20.7 mph 27.6 mph N/A   Clear
6:55 PM 12.2 °F -6.3 °F -2.2 °F 53% 30.39 in 10.0 mi North 20.7 mph 26.5 mph N/A   Clear
7:15 PM 10.4 °F -8.2 °F -4.0 °F 52% 30.41 in 10.0 mi North 19.6 mph - N/A   Clear
7:35 PM 8.6 °F -11.0 °F -4.0 °F 57% 30.42 in 10.0 mi North 20.7 mph 25.3 mph N/A   Clear
7:55 PM 8.6 °F -9.5 °F -5.8 °F 52% 30.44 in 10.0 mi North 17.3 mph - N/A   Clear
8:15 PM 8.6 °F -9.5 °F -5.8 °F 52% 30.45 in 10.0 mi North 17.3 mph - N/A   Clear
8:35 PM 6.8 °F -11.8 °F -7.6 °F 52% 30.46 in 10.0 mi North 17.3 mph 23.0 mph N/A   Clear
8:55 PM 6.8 °F -12.9 °F -7.6 °F 52% 30.47 in 10.0 mi North 19.6 mph - N/A   Clear
9:15 PM 6.8 °F -12.4 °F -9.4 °F 48% 30.48 in 10.0 mi North 18.4 mph - N/A   Clear
9:35 PM 5.0 °F -15.7 °F -9.4 °F 52% 30.49 in 10.0 mi North 20.7 mph - N/A   Clear
9:55 PM 5.0 °F -13.6 °F -9.4 °F 52% 30.50 in 10.0 mi North 16.1 mph 25.3 mph N/A   Clear
10:15 PM 3.2 °F -15.9 °F -9.4 °F 56% 30.51 in 10.0 mi North 16.1 mph 23.0 mph N/A   Clear
10:35 PM 3.2 °F -15.9 °F -9.4 °F 56% 30.51 in 10.0 mi NNE 16.1 mph 25.3 mph N/A   Clear
10:55 PM 3.2 °F -13.9 °F -9.4 °F 56% 30.53 in 10.0 mi North 12.7 mph - N/A   Clear
11:15 PM 3.2 °F -16.5 °F -9.4 °F 56% 30.54 in 10.0 mi North 17.3 mph - N/A   Clear
11:35 PM 3.2 °F -16.5 °F -9.4 °F 56% 30.54 in 10.0 mi North 17.3 mph - N/A   Clear
11:55 PM 3.2 °F -15.3 °F -9.4 °F 56% 30.56 in 10.0 mi North 15.0 mph 21.9 mph N/A   Clear